Weather reports worldwide

Advertisment
Norderney, Germany (10113): temperature & dewpoint: 06.12.2019 12:00:00 - 12.12.2019 12:00:00 (CET)Norderney, Germany (10113): temperature 5cm & temperature -5cm: 06.12.2019 12:00:00 - 12.12.2019 12:00:00 (CET)Norderney, Germany (10113): temperature -20cm & temperature -100cm: 06.12.2019 12:00:00 - 12.12.2019 12:00:00 (CET)Norderney, Germany (10113): wind speed & gusts: 06.12.2019 12:00:00 - 12.12.2019 12:00:00 (CET)Norderney, Germany (10113): wind direction: 06.12.2019 12:00:00 - 12.12.2019 12:00:00 (CET)Norderney, Germany (10113): reduced air pressure: 06.12.2019 12:00:00 - 12.12.2019 12:00:00 (CET)Norderney, Germany (10113): visibility: 06.12.2019 12:00:00 - 12.12.2019 12:00:00 (CET)Norderney, Germany (10113): sunshine duration: 06.12.2019 12:00:00 - 12.12.2019 12:00:00 (CET)Norderney, Germany (10113): precipitation: 06.12.2019 12:00:00 - 12.12.2019 12:00:00 (CET)
Date & Time tt [°C] td [°C] tt 5cm [°C] tt -5cm [°C] tt -20cm [°C] tt -100cm [°C] ff [km/h] ff [kn] fx [km/h] fx [kn] dd ppp [hPa] vv [km] sd [min] rr [mm]
12.12.2019 12:00:00 - - - - - - - - - - - - - - -
12.12.2019 11:00:00 5,5 3,6 5,4 4,5 5,1 7,8 21 11 37 20 SSW 998,5 19 - 0,0
12.12.2019 10:00:00 5,3 4,0 4,5 4,4 5,1 7,8 22 12 36 20 SSW 998,6 14 0 0,0
12.12.2019 09:00:00 5,3 4,0 4,7 4,6 5,1 7,8 20 11 35 19 SSW 998,5 12 0 0,0
12.12.2019 08:00:00 5,5 4,0 5,1 4,5 5,1 7,8 22 12 38 20 SSW 998,5 14 0 0,0
12.12.2019 07:00:00 5,3 4,1 4,9 4,6 5,1 7,8 18 10 31 17 SSW 998,5 11 0 0,0
12.12.2019 06:00:00 5,2 4,2 4,9 4,6 5,1 7,8 20 11 34 19 S 998,7 7 0 0,0
12.12.2019 05:00:00 5,0 4,2 4,8 4,5 5,2 7,8 16 9 29 16 S 999,0 5 0 0,0
12.12.2019 04:00:00 4,9 4,0 4,0 4,7 5,2 7,8 18 10 31 17 S 999,4 5 0 0,0
12.12.2019 03:00:00 5,2 4,2 5,0 4,7 5,2 7,8 15 8 28 15 SSW 1000,5 7 0 0,0
12.12.2019 02:00:00 4,7 3,5 4,5 4,7 5,2 7,9 19 10 31 17 S 1000,9 7 0 0,0
12.12.2019 01:00:00 5,0 4,2 4,8 4,7 5,1 7,9 14 8 29 16 S 1001,3 4,9 0 0,0
12.12.2019 00:00:00 5,1 4,3 4,8 4,7 5,1 7,9 18 10 28 15 SSW 1001,9 5 0 0,0
11.12.2019 23:00:00 5,5 4,8 5,1 4,5 5,1 7,9 15 8 27 15 SSW 1001,9 4,1 0 0,0
11.12.2019 22:00:00 5,3 4,8 4,6 4,4 5,1 7,9 13 7 24 13 S 1002,4 4,2 0 0,0
11.12.2019 21:00:00 5,2 4,7 4,7 4,2 5,2 7,9 14 8 23 12 S 1002,6 4,8 0 0,0
11.12.2019 20:00:00 5,2 4,4 4,2 4,2 5,3 7,9 14 8 23 12 S 1003,0 7 0 0,0
11.12.2019 19:00:00 5,2 4,7 4,3 4,5 5,5 7,9 13 7 21 12 S 1003,2 6 0 0,0
11.12.2019 18:00:00 5,5 4,9 4,8 4,9 5,5 7,9 13 7 24 13 S 1003,5 8 0 0,0
11.12.2019 17:00:00 5,7 5,1 5,2 5,1 5,6 7,9 14 8 22 12 S 1003,6 8 0 0,0
11.12.2019 16:00:00 5,9 5,1 5,1 5,4 5,6 7,9 15 8 24 13 S 1003,7 11 0 0,0
11.12.2019 15:00:00 6,1 5,3 5,5 5,7 5,5 7,9 13 7 26 14 S 1003,9 12 0 0,0
11.12.2019 14:00:00 6,2 5,5 5,9 5,8 5,4 7,9 13 7 27 15 SSW 1004,6 13 0 0,0
11.12.2019 13:00:00 6,3 5,6 6,2 5,6 5,3 7,9 17 9 31 17 SSW 1005,3 11 0 0,0
11.12.2019 12:00:00 6,0 5,6 5,8 5,1 5,2 7,9 18 10 31 17 S 1006,0 11 0 0,0
11.12.2019 11:00:00 5,8 5,4 5,3 4,8 5,2 8,0 16 8 30 16 S 1006,5 11 0 0,0
11.12.2019 10:00:00 6,0 5,5 5,4 4,8 5,2 8,0 18 10 32 17 SSW 1006,3 11 0 0,0
11.12.2019 09:00:00 6,0 5,6 5,4 4,8 5,2 8,0 18 10 32 17 SSW 1006,4 11 0 0,0
11.12.2019 08:00:00 5,9 5,5 5,4 4,8 5,1 8,0 18 10 35 19 SSW 1006,1 16 0 0,0
11.12.2019 07:00:00 5,7 5,2 5,2 4,9 5,1 8,0 21 11 36 20 SSW 1006,0 23 0 0,0
11.12.2019 06:00:00 5,7 5,1 5,3 4,9 5,0 8,0 25 13 41 22 S 1005,6 25 0 0,3
11.12.2019 05:00:00 5,7 5,3 5,3 4,7 5,0 8,0 21 12 46 25 SSW 1005,9 13 0 0,9
11.12.2019 04:00:00 5,0 4,2 4,6 4,5 4,9 8,0 27 14 60 33 S 1005,7 8 0 0,3
11.12.2019 03:00:00 5,2 3,4 4,6 4,5 4,9 8,0 41 22 68 37 S 1005,3 9 0 0,0
11.12.2019 02:00:00 5,8 2,0 5,6 4,4 4,9 8,0 39 21 64 35 S 1005,4 33 0 0,0
11.12.2019 01:00:00 5,9 1,6 5,7 4,3 4,9 8,0 39 21 63 34 S 1006,0 44 0 0,0
11.12.2019 00:00:00 5,6 1,5 5,4 4,2 4,9 8,0 41 22 64 35 S 1006,8 35 0 0,0
10.12.2019 23:00:00 5,6 1,2 5,4 4,1 4,9 8,1 41 22 68 37 S 1007,6 37 0 0,0
10.12.2019 22:00:00 5,6 0,9 5,3 4,0 4,9 8,1 46 25 69 37 S 1008,4 37 0 0,0
10.12.2019 21:00:00 5,1 1,0 4,6 4,0 4,9 8,1 36 20 62 34 S 1009,0 38 0 0,0
10.12.2019 20:00:00 5,0 1,5 3,7 4,0 5,0 8,1 39 21 63 34 S 1010,4 18 0 0,1
10.12.2019 19:00:00 5,0 1,3 4,7 3,9 5,1 8,1 35 19 65 35 S 1012,0 33 0 0,0
10.12.2019 18:00:00 4,7 1,3 4,1 3,8 5,2 8,1 31 17 52 28 S 1013,3 34 0 0,0
10.12.2019 17:00:00 4,8 1,2 4,0 4,2 5,3 8,1 28 15 50 27 S 1014,7 30 0 0,0
10.12.2019 16:00:00 5,3 1,3 4,8 4,6 5,4 8,1 28 15 46 25 S 1016,3 36 0 0,0
10.12.2019 15:00:00 6,1 1,3 5,7 5,1 5,4 8,1 32 17 50 27 S 1017,4 50 57 0,0
10.12.2019 14:00:00 6,0 2,5 6,7 5,2 5,3 8,1 24 13 41 22 S 1018,7 30 17 0,0
10.12.2019 13:00:00 5,6 2,8 6,0 5,4 5,2 8,1 21 11 36 19 S 1019,7 36 40 0,0
10.12.2019 12:00:00 5,4 2,3 6,1 5,1 5,1 8,1 16 9 31 17 S 1020,7 29 58 0,0
10.12.2019 11:00:00 6,1 2,5 6,7 4,4 5,0 8,1 18 10 32 17 SSW 1021,6 30 35 0,0
10.12.2019 10:00:00 5,8 2,5 4,9 4,0 5,1 8,2 13 7 24 13 SSW 1021,4 27 3 0,0
10.12.2019 09:00:00 6,5 2,3 4,7 4,2 5,1 8,2 8 4 23 12 W 1021,3 8 0 0,0
10.12.2019 08:00:00 6,6 2,8 4,9 4,2 5,2 8,2 19 10 35 19 W 1021,2 6 0 0,0
10.12.2019 07:00:00 6,7 1,7 5,3 4,4 5,2 8,2 16 9 32 17 WNW 1020,8 10 0 0,0
10.12.2019 06:00:00 6,6 2,2 5,2 4,3 5,2 8,2 24 13 34 18 NW 1020,4 14 0 0,0
10.12.2019 05:00:00 6,6 1,8 5,4 4,2 5,3 8,2 30 16 51 27 WNW 1019,9 18 0 0,0
10.12.2019 04:00:00 6,8 1,2 5,3 4,4 5,4 8,2 38 20 54 29 NW 1019,2 14 0 0,0
10.12.2019 03:00:00 6,9 2,2 5,0 4,4 5,4 8,2 36 19 63 34 NNW 1018,5 14 0 0,4
10.12.2019 02:00:00 7,0 2,4 6,0 4,3 5,5 8,2 38 20 58 31 NW 1017,1 14 0 0,0
10.12.2019 01:00:00 6,8 2,3 5,8 4,6 5,5 8,2 48 26 65 35 NW 1016,0 11 0 0,0
10.12.2019 00:00:00 7,2 1,3 6,0 4,6 5,6 8,2 50 27 64 34 NW 1014,8 12 0 0,0
09.12.2019 23:00:00 7,1 1,7 6,4 4,6 5,6 8,2 58 31 73 39 NNW 1013,4 10 0 0,0
09.12.2019 22:00:00 7,0 1,6 5,9 4,6 5,7 8,2 53 28 67 36 NW 1012,2 10 0 0,0
09.12.2019 21:00:00 6,4 2,2 5,4 4,6 5,9 8,2 63 34 76 41 NW 1010,6 8 0 0,0
09.12.2019 20:00:00 7,3 1,5 6,1 4,9 6,0 8,2 58 32 82 44 NNW 1008,8 8 0 0,0
09.12.2019 19:00:00 7,7 1,6 6,4 5,0 6,1 8,2 58 32 75 41 NNW 1006,9 10 0 0,0
09.12.2019 18:00:00 7,5 3,0 6,4 5,3 6,2 8,2 55 30 73 40 NNW 1005,4 11 0 0,0
09.12.2019 17:00:00 7,9 2,5 6,6 5,7 6,3 8,2 60 33 76 41 NNW 1003,1 12 0 0,0
09.12.2019 16:00:00 7,9 2,5 6,6 6,0 6,3 8,2 56 30 77 42 NNW 1001,1 15 0 0,0
09.12.2019 15:00:00 8,0 4,2 6,3 6,2 6,3 8,2 45 24 81 44 N 998,8 14 0 1,1
09.12.2019 14:00:00 6,5 5,2 6,0 6,4 6,2 8,2 25 13 35 19 NW 997,1 4,4 0 1,1
09.12.2019 13:00:00 6,5 5,8 6,2 6,4 6,1 8,2 13 7 33 18 W 995,8 8 17 1,2
09.12.2019 12:00:00 6,0 4,7 5,9 6,2 5,9 8,2 19 11 34 19 SW 994,5 29 8 0,0
09.12.2019 11:00:00 6,2 3,9 6,2 5,6 5,9 8,2 23 12 41 22 SW 993,8 43 39 0,0
09.12.2019 10:00:00 6,2 4,2 5,7 5,2 5,9 8,2 24 13 44 24 SW 992,9 38 0 0,0
09.12.2019 09:00:00 6,3 4,2 5,6 5,0 5,9 8,2 30 16 49 26 SW 992,1 37 0 0,0
09.12.2019 08:00:00 6,6 4,6 5,8 5,4 5,9 8,2 24 13 57 31 SW 991,5 22 0 0,0
09.12.2019 07:00:00 6,6 4,6 6,2 5,2 5,9 8,2 28 15 48 26 SSW 990,8 21 0 0,0
09.12.2019 06:00:00 6,5 4,6 6,0 5,0 5,9 8,2 25 13 44 24 SSW 990,4 19 0 0,0
09.12.2019 05:00:00 6,3 4,5 5,6 4,9 6,0 8,2 25 14 49 26 SSW 990,6 20 0 0,0
09.12.2019 04:00:00 6,5 4,3 5,5 4,9 6,1 8,2 27 15 45 24 SSW 990,6 24 0 0,0
09.12.2019 03:00:00 6,6 4,1 5,6 4,9 6,2 8,2 27 15 50 27 SSW 990,8 21 0 0,0
09.12.2019 02:00:00 6,9 4,2 6,0 5,0 6,3 8,2 27 15 48 26 SW 990,9 23 0 0,0
09.12.2019 01:00:00 6,8 4,2 5,7 5,2 6,5 8,2 24 13 44 24 SW 991,1 23 0 0,0
09.12.2019 00:00:00 7,1 4,2 6,1 5,4 6,6 8,2 29 16 63 34 SW 991,1 26 0 0,0
08.12.2019 23:00:00 7,2 4,4 6,5 5,5 6,8 8,2 24 13 50 27 SSW 990,9 22 0 0,0
08.12.2019 22:00:00 7,3 4,0 6,2 5,9 6,9 8,1 27 15 50 27 SW 991,3 24 0 0,0
08.12.2019 21:00:00 7,7 4,2 7,0 6,2 7,0 8,1 33 18 68 37 SW 992,0 23 0 0,0
08.12.2019 20:00:00 8,2 5,0 7,1 6,3 7,2 8,1 31 17 48 26 SW 992,1 18 0 0,2
08.12.2019 19:00:00 8,0 5,3 7,0 6,4 7,3 8,1 29 15 45 24 SW 992,5 16 0 0,2
08.12.2019 18:00:00 8,2 5,2 7,3 6,6 7,5 8,1 32 18 49 26 SW 992,9 19 0 0,0
08.12.2019 17:00:00 8,3 5,4 7,4 7,0 7,6 8,1 30 16 51 28 SW 993,1 21 0 0,0
08.12.2019 16:00:00 8,5 5,6 7,4 7,7 7,7 8,1 27 15 49 27 SW 993,3 16 24 0,0
08.12.2019 15:00:00 9,4 6,4 8,8 8,3 7,6 8,1 31 17 51 27 WSW 993,3 16 38 0,0
08.12.2019 14:00:00 9,5 6,4 9,4 8,4 7,5 8,1 34 18 55 30 WSW 993,1 15 42 0,0
08.12.2019 13:00:00 9,5 7,4 9,0 8,2 7,4 8,1 30 16 54 29 SW 992,7 21 1 0,1
08.12.2019 12:00:00 9,1 8,0 8,7 7,9 7,2 8,1 34 18 66 35 SW 992,7 17 0 0,0
08.12.2019 11:00:00 8,8 7,9 8,3 7,5 7,2 8,1 38 21 64 35 SW 993,1 20 0 0,1
08.12.2019 10:00:00 8,3 7,8 7,8 7,3 7,1 8,1 35 19 70 38 SSW 993,5 3,3 0 0,5
08.12.2019 09:00:00 8,3 6,9 7,7 7,2 7,1 8,1 37 20 70 38 SSW 994,2 15 0 0,2
08.12.2019 08:00:00 8,0 6,6 7,3 7,1 7,1 8,0 42 23 64 35 SSW 994,2 8 0 0,8
08.12.2019 07:00:00 8,2 6,0 7,2 7,1 7,1 8,0 37 20 60 33 SSW 995,9 8 0 0,2
08.12.2019 06:00:00 8,8 5,8 8,5 7,2 7,1 8,0 40 22 72 39 SSW 996,9 31 0 0,0
08.12.2019 05:00:00 8,9 6,1 8,6 7,1 7,0 8,0 35 19 60 33 SSW 998,3 28 0 0,0
08.12.2019 04:00:00 8,8 6,5 8,5 7,0 7,0 8,0 32 17 53 28 SSW 1000,4 23 0 0,0
08.12.2019 03:00:00 8,4 6,2 8,1 6,8 7,0 8,0 32 18 51 27 SSW 1001,8 25 0 0,0
08.12.2019 02:00:00 7,7 5,5 7,5 6,7 7,0 8,0 24 13 43 23 SSW 1003,6 36 0 0,0
08.12.2019 01:00:00 7,8 5,6 7,4 6,8 7,1 8,0 23 12 40 22 SSW 1004,8 32 0 0,0
08.12.2019 00:00:00 7,9 5,5 7,6 6,9 7,1 8,0 23 12 43 23 SSW 1006,3 33 0 0,0
07.12.2019 23:00:00 8,1 5,9 7,7 7,0 7,2 8,0 24 13 41 22 SSW 1007,2 35 0 0,0
07.12.2019 22:00:00 8,0 6,9 7,7 7,1 7,2 8,0 22 12 38 21 SW 1008,1 22 0 0,0
07.12.2019 21:00:00 8,1 6,9 7,7 7,1 7,2 8,0 24 13 36 20 SW 1008,6 21 0 0,0
07.12.2019 20:00:00 7,8 7,0 7,4 7,1 7,3 8,0 23 12 37 20 SW 1008,7 15 0 0,0
07.12.2019 19:00:00 7,9 6,9 7,5 7,2 7,3 7,9 21 11 36 20 SW 1009,2 14 0 0,0
07.12.2019 18:00:00 8,2 7,1 7,9 7,4 7,4 7,9 22 12 40 22 SW 1009,1 12 0 0,0
07.12.2019 17:00:00 8,5 7,4 8,0 7,5 7,4 7,9 23 12 40 22 WSW 1008,9 9 0 0,0
07.12.2019 16:00:00 8,3 7,2 7,8 7,7 7,4 7,9 24 13 39 21 WSW 1008,3 8 0 0,1
07.12.2019 15:00:00 8,6 7,2 8,2 8,0 7,4 7,9 26 14 41 22 WSW 1008,2 8 18 0,1
07.12.2019 14:00:00 8,0 7,1 8,5 8,1 7,3 7,9 18 10 42 23 W 1007,8 9 3 0,0
07.12.2019 13:00:00 8,5 6,4 8,5 8,3 7,1 7,9 28 15 49 27 W 1007,8 11 30 0,0
07.12.2019 12:00:00 8,5 7,0 8,2 7,8 7,0 7,9 29 16 50 27 W 1007,1 11 23 0,0
07.12.2019 11:00:00 8,6 6,9 8,6 7,5 6,9 7,9 24 13 41 22 W 1006,8 12 4 0,0
07.12.2019 10:00:00 8,5 7,4 8,1 7,2 6,8 7,9 27 15 39 21 W 1006,2 8 0 0,0
07.12.2019 09:00:00 8,6 7,3 7,8 7,2 6,8 7,9 22 12 42 23 WSW 1005,4 10 0 0,0
07.12.2019 08:00:00 8,7 7,5 8,1 7,1 6,7 7,9 28 15 41 22 W 1004,5 7 0 0,0
07.12.2019 07:00:00 8,8 7,5 8,1 7,0 6,7 7,9 31 17 44 24 W 1003,5 8 0 0,0
07.12.2019 06:00:00 8,5 7,4 7,7 6,9 6,7 7,9 29 16 44 24 W 1002,5 8 0 0,0
07.12.2019 05:00:00 8,7 7,4 8,0 6,8 6,6 7,9 32 17 43 23 W 1001,6 9 0 0,0
07.12.2019 04:00:00 8,4 7,2 7,7 6,6 6,6 7,9 31 17 44 24 W 1000,8 10 0 0,0
07.12.2019 03:00:00 8,4 7,3 7,2 6,7 6,7 7,9 29 16 40 22 W 999,6 11 0 0,0
07.12.2019 02:00:00 8,0 7,4 7,2 7,0 6,6 7,9 24 13 41 22 W 998,6 9 0 0,0
07.12.2019 01:00:00 8,5 8,2 8,0 7,1 6,6 7,9 21 11 35 19 WSW 998,1 13 0 0,4
07.12.2019 00:00:00 7,9 7,7 7,6 7,0 6,5 7,9 24 13 43 23 SW 997,7 8 0 1,2
06.12.2019 23:00:00 7,9 7,7 7,7 6,9 6,4 7,9 28 15 45 24 SW 997,3 1,7 0 1,0
06.12.2019 22:00:00 7,8 7,4 7,4 6,8 6,4 7,9 27 15 48 26 SSW 997,1 5 0 0,4
06.12.2019 21:00:00 7,8 7,2 7,4 6,7 6,3 7,9 28 15 47 26 SSW 997,5 10 0 0,1
06.12.2019 20:00:00 7,4 7,1 7,1 6,6 6,2 7,9 23 12 46 25 SSW 997,9 5 0 0,0
06.12.2019 19:00:00 7,3 7,2 7,0 6,5 6,1 7,9 25 14 48 26 SSW 998,2 3,0 0 0,2
06.12.2019 18:00:00 7,2 6,9 6,9 6,3 6,1 7,9 28 15 49 27 SSW 998,6 5 0 0,0
06.12.2019 17:00:00 7,0 6,5 6,7 6,3 6,0 7,9 26 14 46 25 SSW 998,8 4,3 0 0,2
06.12.2019 16:00:00 6,9 6,3 6,5 6,2 6,0 7,9 25 13 51 28 SSW 999,5 4,8 0 0,0
06.12.2019 15:00:00 6,7 6,1 6,4 6,1 5,9 7,9 32 17 58 32 SSW 1000,3 9 0 0,4
06.12.2019 14:00:00 6,3 6,1 6,1 6,1 5,9 7,9 27 15 51 27 SSW 1001,1 7 0 2,0
06.12.2019 13:00:00 6,1 5,8 6,0 6,0 5,9 7,9 27 15 50 27 SSW 1002,0 3,5 0 0,1
06.12.2019 12:00:00 5,9 5,5 5,7 6,0 5,8 7,9 29 16 47 26 SSW 1003,0 9 0 0,4

tt = temperature
td = dewpoint
tt 5cm = temperature 5cm
tt -5cm = temperature -5cm
tt -20cm = temperature -20cm
tt -100cm = temperature -100cm
ff = wind speed
fx = gusts
dd = wind direction
ppp = reduced air pressure
vv = visibility
sd = sunshine duration
rr = precipitation

Next stations